• In Austria
  • List of Countries
  • For 7 days
  • Water Temperature
  • Satellite Maps
  • Weather Map
  • News
  • Weather Widgets
  • user-avatar
    Login

    Hourly Weather Brzeszcze

    Today, 19 April, Thursday

    Time Temperature Precipitation Wind Pressure Humidity
    00:00 +12°C° 0 mm 1 mps 750 mmHg 72%
    01:00 +12°C° 0 mm 1 mps 750 mmHg 75%
    02:00 +11°C° 0 mm 1 mps 750 mmHg 76%
    03:00 +11°C° 0 mm 1 mps 750 mmHg 77%
    04:00 +11°C° 0 mm 1 mps 749 mmHg 78%
    05:00 +12°C° 0 mm 1 mps 749 mmHg 75%
    06:00 +13°C° 0 mm 2 mps 749 mmHg 72%
    07:00 +15°C° 0 mm 2 mps 749 mmHg 68%
    08:00 +16°C° 0 mm 2 mps 749 mmHg 64%
    09:00 +18°C° 0 mm 3 mps 749 mmHg 60%
    10:00 +20°C° 0 mm 3 mps 749 mmHg 56%
    11:00 +21°C° 0 mm 4 mps 749 mmHg 53%
    12:00 +22°C° 0 mm 4 mps 748 mmHg 50%
    13:00 +22°C° 0 mm 4 mps 748 mmHg 47%
    14:00 +22°C° 0 mm 4 mps 748 mmHg 48%
    15:00 +22°C° 0 mm 5 mps 748 mmHg 49%
    16:00 +22°C° 0 mm 5 mps 747 mmHg 50%
    17:00 +20°C° 0 mm 4 mps 747 mmHg 57%
    18:00 +19°C° 0 mm 3 mps 747 mmHg 64%
    19:00 +17°C° 0 mm 3 mps 747 mmHg 71%
    20:00 +16°C° 0 mm 2 mps 747 mmHg 74%
    21:00 +15°C° 0 mm 2 mps 748 mmHg 78%
    22:00 +14°C° 0 mm 2 mps 748 mmHg 82%
    23:00 +13°C° 0 mm 2 mps 748 mmHg 82%

    Tomorrow, 20 April, Friday

    Time Temperature Precipitation Wind Pressure Humidity
    00:00 +13°C° 0 mm 1 mps 748 mmHg 82%
    01:00 +12°C° 0 mm 1 mps 748 mmHg 82%
    02:00 +11°C° 0 mm 1 mps 748 mmHg 82%
    03:00 +11°C° 0 mm 1 mps 748 mmHg 82%
    04:00 +10°C° 0 mm 1 mps 748 mmHg 83%
    05:00 +11°C° 0 mm 1 mps 748 mmHg 77%
    06:00 +12°C° 0 mm 1 mps 748 mmHg 70%
    07:00 +13°C° 0 mm 1 mps 748 mmHg 64%
    08:00 +15°C° 0 mm 1 mps 748 mmHg 56%
    09:00 +18°C° 0 mm 1 mps 748 mmHg 47%
    10:00 +18°C° 0 mm 2 mps 748 mmHg 38%
    11:00 +19°C° 0 mm 2 mps 748 mmHg 36%
    12:00 +20°C° 0 mm 2 mps 748 mmHg 33%
    13:00 +21°C° 0 mm 2 mps 747 mmHg 31%
    14:00 +21°C° 0 mm 2 mps 747 mmHg 32%
    15:00 +21°C° 0 mm 2 mps 747 mmHg 32%
    16:00 +22°C° 0 mm 1 mps 746 mmHg 33%
    17:00 +20°C° 0 mm 1 mps 746 mmHg 39%
    18:00 +19°C° 0 mm 1 mps 746 mmHg 45%
    19:00 +16°C° 0 mm 1 mps 746 mmHg 50%
    20:00 +15°C° 0 mm 1 mps 745 mmHg 53%
    21:00 +14°C° 0 mm 2 mps 745 mmHg 55%
    22:00 +13°C° 0 mm 2 mps 745 mmHg 57%
    23:00 +13°C° 0 mm 2 mps 745 mmHg 58%

    Day after tomorrow, 21 April, Saturday

    Time Temperature Precipitation Wind Pressure Humidity
    00:00 +13°C° 0 mm 2 mps 744 mmHg 58%
    01:00 +12°C° 0 mm 2 mps 744 mmHg 58%
    02:00 +12°C° 0 mm 2 mps 744 mmHg 59%
    03:00 +12°C° 0 mm 2 mps 744 mmHg 60%
    04:00 +12°C° 0 mm 2 mps 743 mmHg 61%
    05:00 +12°C° 0 mm 3 mps 743 mmHg 60%
    06:00 +13°C° 0 mm 3 mps 743 mmHg 59%
    07:00 +15°C° 0 mm 4 mps 743 mmHg 58%
    08:00 +18°C° 0 mm 4 mps 743 mmHg 54%
    09:00 +20°C° 0 mm 4 mps 743 mmHg 49%
    10:00 +22°C° 0 mm 4 mps 742 mmHg 45%
    11:00 +23°C° 0 mm 4 mps 742 mmHg 43%
    12:00 +25°C° 0 mm 4 mps 742 mmHg 42%
    13:00 +26°C° 0 mm 4 mps 742 mmHg 40%
    14:00 +26°C° 0.1 mm 4 mps 741 mmHg 42%
    15:00 +25°C° 0.1 mm 4 mps 741 mmHg 44%
    16:00 +25°C° 0.1 mm 4 mps 740 mmHg 46%
    17:00 +22°C° 0.1 mm 3 mps 741 mmHg 54%
    18:00 +20°C° 0.1 mm 3 mps 741 mmHg 62%
    19:00 +18°C° 0.1 mm 2 mps 741 mmHg 70%
    20:00 +18°C° 0 mm 2 mps 741 mmHg 71%
    21:00 +18°C° 0 mm 1 mps 741 mmHg 73%
    22:00 +16°C° 0 mm 1 mps 741 mmHg 74%
    23:00 +15°C° 0 mm 1 mps 741 mmHg 75%

    22 April, Sunday

    Time Temperature Precipitation Wind Pressure Humidity
    00:00 +14°C° 0 mm 1 mps 741 mmHg 76%
    01:00 +14°C° 0 mm 1 mps 741 mmHg 77%
    02:00 +13°C° 0 mm 1 mps 741 mmHg 77%
    03:00 +12°C° 0 mm 1 mps 741 mmHg 77%
    04:00 +11°C° 0 mm 1 mps 741 mmHg 77%
    05:00 +12°C° 0 mm 1 mps 741 mmHg 72%
    06:00 +13°C° 0 mm 1 mps 741 mmHg 67%
    07:00 +15°C° 0 mm 1 mps 741 mmHg 62%
    08:00 +16°C° 0 mm 1 mps 741 mmHg 56%
    09:00 +19°C° 0 mm 1 mps 741 mmHg 49%
    10:00 +19°C° 0 mm 2 mps 741 mmHg 42%
    11:00 +20°C° 0 mm 2 mps 741 mmHg 40%
    12:00 +21°C° 0 mm 2 mps 740 mmHg 37%
    13:00 +23°C° 0 mm 2 mps 740 mmHg 35%
    14:00 +23°C° 0 mm 2 mps 739 mmHg 35%
    15:00 +23°C° 0 mm 2 mps 739 mmHg 35%
    16:00 +23°C° 0 mm 2 mps 739 mmHg 34%
    17:00 +21°C° 0 mm 1 mps 738 mmHg 39%
    18:00 +19°C° 0 mm 1 mps 738 mmHg 44%
    19:00 +16°C° 0 mm 1 mps 738 mmHg 49%
    20:00 +15°C° 0 mm 1 mps 738 mmHg 51%
    21:00 +15°C° 0 mm 1 mps 738 mmHg 52%
    22:00 +14°C° 0 mm 1 mps 738 mmHg 54%
    23:00 +14°C° 0 mm 1 mps 738 mmHg 55%

    23 April, Monday

    Time Temperature Precipitation Wind Pressure Humidity
    00:00 +14°C° 0 mm 2 mps 737 mmHg 57%
    01:00 +13°C° 0 mm 2 mps 737 mmHg 58%
    02:00 +13°C° 0.2 mm 2 mps 736 mmHg 61%
    03:00 +13°C° 0.2 mm 2 mps 736 mmHg 64%
    04:00 +13°C° 0.2 mm 2 mps 736 mmHg 67%
    05:00 +14°C° 0.3 mm 2 mps 735 mmHg 69%
    06:00 +16°C° 0.3 mm 3 mps 735 mmHg 71%
    07:00 +17°C° 0.3 mm 3 mps 735 mmHg 73%
    08:00 +19°C° 0.2 mm 3 mps 735 mmHg 69%
    09:00 +20°C° 0.2 mm 4 mps 734 mmHg 65%
    10:00 +22°C° 0.2 mm 5 mps 734 mmHg 60%
    11:00 +22°C° 0.4 mm 5 mps 734 mmHg 58%
    12:00 +23°C° 0.4 mm 6 mps 734 mmHg 55%
    13:00 +23°C° 0.4 mm 6 mps 733 mmHg 52%
    14:00 +23°C° 0.7 mm 6 mps 733 mmHg 56%
    15:00 +22°C° 0.7 mm 6 mps 733 mmHg 59%
    16:00 +21°C° 0.7 mm 6 mps 733 mmHg 62%
    17:00 +19°C° 0.3 mm 5 mps 733 mmHg 67%
    18:00 +18°C° 0.3 mm 4 mps 733 mmHg 72%
    19:00 +16°C° 0.3 mm 3 mps 733 mmHg 77%
    20:00 +14°C° 0 mm 3 mps 734 mmHg 77%
    21:00 +13°C° 0 mm 3 mps 734 mmHg 78%
    22:00 +13°C° 0 mm 3 mps 735 mmHg 79%
    23:00 +12°C° 0 mm 3 mps 735 mmHg 80%

    24 April, Tuesday

    Time Temperature Precipitation Wind Pressure Humidity
    00:00 +11°C° 0 mm 3 mps 735 mmHg 81%
    01:00 +11°C° 0 mm 3 mps 735 mmHg 82%
    02:00 +10°C° 0 mm 3 mps 735 mmHg 82%
    03:00 +10°C° 0 mm 3 mps 735 mmHg 83%
    04:00 +9°C° 0 mm 3 mps 735 mmHg 83%
    05:00 +10°C° 0 mm 3 mps 735 mmHg 80%
    06:00 +11°C° 0 mm 4 mps 735 mmHg 76%
    07:00 +12°C° 0 mm 5 mps 735 mmHg 72%
    08:00 +12°C° 0.4 mm 5 mps 735 mmHg 74%
    09:00 +11°C° 0.4 mm 6 mps 734 mmHg 76%
    10:00 +13°C° 0.4 mm 6 mps 734 mmHg 78%
    11:00 +13°C° 0.8 mm 6 mps 734 mmHg 78%
    12:00 +13°C° 0.8 mm 6 mps 734 mmHg 78%
    13:00 +13°C° 0.8 mm 6 mps 734 mmHg 78%
    14:00 +13°C° 0.4 mm 6 mps 735 mmHg 73%
    15:00 +14°C° 0.4 mm 6 mps 735 mmHg 68%
    16:00 +14°C° 0.4 mm 6 mps 735 mmHg 63%
    17:00 +13°C° 0.1 mm 5 mps 735 mmHg 66%
    18:00 +12°C° 0.1 mm 4 mps 736 mmHg 70%
    19:00 +12°C° 0.1 mm 2 mps 736 mmHg 73%
    20:00 +10°C° 0 mm 2 mps 736 mmHg 76%
    21:00 +10°C° 0 mm 2 mps 737 mmHg 78%
    22:00 +9°C° 0 mm 2 mps 737 mmHg 81%
    23:00 +9°C° 0 mm 2 mps 737 mmHg 82%
    Show more